CYBGCYBQ

Guest
Details From CYBG - BAGOTVILLE
To CYBQ - Tadoule Lake
Flight Number -
Tags decoded
Created
Modified
Stats Distance 1,151 nm / 2,132 km
Max Altitude 0 ft / 0 m
Waypoints 2
Social Downloads 0
Likes 0
Share VATSIM

Download

Looking for another format? Having issues loading an existing format? Contact us
Advertisement - Login to hide

Notes

Requested: CYBG CYBQ

Route

CYBG CYBQ

ID Type Via Altitude Latitude Longitude Leg Dist Tot Dist Heading (true) Name
O CYBG APT - 0 ft / 0 m 48.33118˚ -70.99417˚ - 0 nm - BAGOTVILLE
O CYBQ APT - 0 ft / 0 m 58.70627˚ -98.51285˚ 1150 nm 1150 nm 313° / 291° Tadoule Lake

Altitude Profile

Advertisement - Login to hide

Weather


0- 5 10 15 20 25 30 35+ Temperature / ° C

Clouds and Precipitation
Forecast for 2017-12-18 00:00 UTC. Updated 31 minutes ago

Ground ~20,000 ft ~40,000 ft Winds

CYBG

Details ICAO CYBG (YBG)
Name BAGOTVILLE
Region Canada
Timezone America/Montreal (UTC-5.0)
Stats Elevation 522 ft / 159 m (AMSL)
Location 48.331181° -70.994165°
Runways 2
Magnetic Variation 16.556° W

METAR

CYBG 172100Z 30006KT 25SM FEW015 BKN030 M18/M23 A3026 RMK SC1SC5 SLP265

Decode

TAF

TAF TAF CYBG 171731Z 1718/1818 29010KT 5SM -SN BKN012 TEMPO 1718/1720 P6SM NSW OVC020 BECMG 1720/1722 VRB03KT P6SM NSW FEW025 FM180700 10005KT P6SM BKN160 FM181600 09005KT P6SM BKN060 RMK NXT FCST BY 180000Z

Decode

Departure Runways

ID Width Length Bearing (true) Bearing (mag) Surface Threshold Offset Overrun Length
11 150 ft / 46 m 9,907 ft / 3,020 m 90.57° 107.13° Concrete 0 ft / 0 m 0 ft / 0 m
18 150 ft / 46 m 5,923 ft / 1,805 m 163.46° 180.02° Asphalt 0 ft / 0 m 0 ft / 0 m
29 150 ft / 46 m 9,907 ft / 3,020 m 270.60° 287.16° Concrete 0 ft / 0 m 0 ft / 0 m
36 150 ft / 46 m 5,923 ft / 1,805 m 343.46° 0.02° Asphalt 0 ft / 0 m 0 ft / 0 m

CYBQ

Details ICAO CYBQ (XTL)
Name Tadoule Lake
Region Canada
Timezone America/Winnipeg (UTC-6.0)
Stats Elevation 902 ft / 275 m (AMSL)
Location 58.706269° -98.512850°
Runways 1
Magnetic Variation 2.988° E

METAR

CYBQ 172138Z AUTO 14007KT 9SM OVC018 M15/M17 A2931 RMK SLP958

Decode

TAF

Not found

Destination Runways

ID Width Length Bearing (true) Bearing (mag) Surface Threshold Offset Overrun Length
07 164 ft / 50 m 3,971 ft / 1,210 m 72.58° 69.59° Dirt 0 ft / 0 m 0 ft / 0 m
25 164 ft / 50 m 3,971 ft / 1,210 m 252.60° 249.61° Dirt 0 ft / 0 m 0 ft / 0 m

Popular Alternatives